Time,TemperatureF,DewpointF,PressureIn,WindDirection,WindDirectionDegrees,WindSpeedMPH,WindSpeedGustMPH,Humidity,HourlyPrecipIn,Conditions,Clouds,dailyrainin,SolarRadiationWatts/m^2,SoftwareType,DateUTC
2013-07-20 00:02:00,72.0,70.0,-100.00,ESE,110,0.0,3.0,92,0.00,,,0.00,0.000000,,2013-07-20 04:02:00,
2013-07-20 00:33:00,72.0,70.0,-100.00,ESE,110,0.0,3.0,92,0.00,,,0.00,0.000000,,2013-07-20 04:33:00,
2013-07-20 00:44:00,72.0,70.0,-100.00,ESE,110,0.0,3.0,92,0.00,,,0.00,0.000000,,2013-07-20 04:44:00,
2013-07-20 00:52:00,72.0,70.0,-100.00,ESE,110,0.0,3.0,92,0.00,,,0.00,0.000000,,2013-07-20 04:52:00,
2013-07-20 01:32:00,71.0,70.0,-100.00,NNE,20,1.0,3.0,96,0.00,,,0.00,0.000000,,2013-07-20 05:32:00,
2013-07-20 01:52:00,71.0,70.0,-100.00,NNE,20,1.0,3.0,96,0.00,,,0.00,0.000000,,2013-07-20 05:52:00,
2013-07-20 02:01:00,71.0,70.0,-100.00,NNE,20,1.0,3.0,96,0.00,,,0.00,0.000000,,2013-07-20 06:01:00,
2013-07-20 02:32:00,70.0,69.0,-100.00,North,5,1.0,3.0,97,0.00,,,0.00,0.000000,,2013-07-20 06:32:00,
2013-07-20 02:43:00,70.0,69.0,-100.00,North,5,1.0,3.0,97,0.00,,,0.00,0.000000,,2013-07-20 06:43:00,
2013-07-20 02:52:00,70.0,69.0,-100.00,North,5,1.0,3.0,97,0.00,,,0.00,0.000000,,2013-07-20 06:52:00,
2013-07-20 03:01:00,70.0,69.0,-100.00,North,5,1.0,3.0,97,0.00,,,0.00,0.000000,,2013-07-20 07:01:00,
2013-07-20 03:02:00,70.0,69.0,-100.00,NNE,30,1.0,2.0,97,0.00,,,0.00,0.000000,,2013-07-20 07:02:00,
2013-07-20 03:22:00,70.0,69.0,-100.00,NNE,30,1.0,2.0,97,0.00,,,0.00,0.000000,,2013-07-20 07:22:00,
2013-07-20 03:33:00,70.0,69.0,-100.00,NNE,30,1.0,2.0,97,0.00,,,0.00,0.000000,,2013-07-20 07:33:00,
2013-07-20 03:44:00,70.0,69.0,-100.00,NNE,30,1.0,2.0,97,0.00,,,0.00,0.000000,,2013-07-20 07:44:00,
2013-07-20 03:54:00,70.0,69.0,-100.00,NNE,30,1.0,2.0,97,0.00,,,0.00,0.000000,,2013-07-20 07:54:00,
2013-07-20 04:02:00,69.0,68.0,-100.00,SSW,194,1.0,2.0,98,0.00,,,0.00,0.000000,,2013-07-20 08:02:00,
2013-07-20 04:22:00,69.0,68.0,-100.00,SSW,194,1.0,2.0,98,0.00,,,0.00,0.000000,,2013-07-20 08:22:00,
2013-07-20 04:32:00,69.0,68.0,-100.00,SSW,194,1.0,2.0,98,0.00,,,0.00,0.000000,,2013-07-20 08:32:00,
2013-07-20 04:44:00,69.0,68.0,-100.00,SSW,194,1.0,2.0,98,0.00,,,0.00,0.000000,,2013-07-20 08:44:00,
2013-07-20 04:52:00,69.0,68.0,-100.00,SSW,194,1.0,2.0,98,0.00,,,0.00,0.000000,,2013-07-20 08:52:00,
2013-07-20 05:33:00,69.0,68.0,-100.00,SSE,158,1.0,2.0,98,0.00,,,0.00,0.000000,,2013-07-20 09:33:00,
2013-07-20 05:43:00,69.0,68.0,-100.00,SSE,158,1.0,2.0,98,0.00,,,0.00,0.000000,,2013-07-20 09:43:00,
2013-07-20 05:53:00,69.0,68.0,-100.00,SSE,158,1.0,2.0,98,0.00,,,0.00,0.000000,,2013-07-20 09:53:00,
2013-07-20 06:01:00,69.0,68.0,-100.00,SSE,158,1.0,2.0,98,0.00,,,0.00,0.000000,,2013-07-20 10:01:00,
2013-07-20 06:02:00,68.0,67.0,-100.00,NNE,22,1.0,1.0,98,0.00,,,0.00,0.000000,,2013-07-20 10:02:00,
2013-07-20 06:32:00,68.0,67.0,-100.00,NNE,22,1.0,1.0,98,0.00,,,0.00,0.000000,,2013-07-20 10:32:00,
2013-07-20 06:42:00,68.0,67.0,-100.00,NNE,22,1.0,1.0,98,0.00,,,0.00,0.000000,,2013-07-20 10:42:00,
2013-07-20 06:52:00,68.0,67.0,-100.00,NNE,22,1.0,1.0,98,0.00,,,0.00,0.000000,,2013-07-20 10:52:00,
2013-07-20 07:32:00,68.0,67.0,-100.00,WNW,303,1.0,2.0,98,0.00,,,0.00,4.000000,,2013-07-20 11:32:00,
2013-07-20 07:43:00,68.0,67.0,-100.00,WNW,303,1.0,2.0,98,0.00,,,0.00,4.000000,,2013-07-20 11:43:00,
2013-07-20 07:52:00,68.0,67.0,-100.00,WNW,303,1.0,2.0,98,0.00,,,0.00,4.000000,,2013-07-20 11:52:00,
2013-07-20 08:01:00,68.0,67.0,-100.00,WNW,303,1.0,2.0,98,0.00,,,0.00,4.000000,,2013-07-20 12:01:00,
2013-07-20 08:32:00,69.0,68.0,-100.00,North,6,1.0,2.0,98,0.00,,,0.00,49.000000,,2013-07-20 12:32:00,
2013-07-20 08:52:00,69.0,68.0,-100.00,North,6,1.0,2.0,98,0.00,,,0.00,49.000000,,2013-07-20 12:52:00,
2013-07-20 09:01:00,69.0,68.0,-100.00,North,6,1.0,2.0,98,0.00,,,0.00,49.000000,,2013-07-20 13:01:00,
2013-07-20 09:02:00,75.0,72.0,-100.00,SE,146,1.0,2.0,90,0.00,,,0.00,164.000000,,2013-07-20 13:02:00,
2013-07-20 09:32:00,75.0,72.0,-100.00,SE,146,1.0,2.0,90,0.00,,,0.00,164.000000,,2013-07-20 13:32:00,
2013-07-20 09:43:00,75.0,72.0,-100.00,SE,146,1.0,2.0,90,0.00,,,0.00,164.000000,,2013-07-20 13:43:00,
2013-07-20 09:53:00,75.0,72.0,-100.00,SE,146,1.0,2.0,90,0.00,,,0.00,164.000000,,2013-07-20 13:53:00,
2013-07-20 10:32:00,82.0,72.0,-100.00,NNW,347,2.0,3.0,71,0.00,,,0.00,438.000000,,2013-07-20 14:32:00,
2013-07-20 10:43:00,82.0,72.0,-100.00,NNW,347,2.0,3.0,71,0.00,,,0.00,438.000000,,2013-07-20 14:43:00,
2013-07-20 10:53:00,82.0,72.0,-100.00,NNW,347,2.0,3.0,71,0.00,,,0.00,438.000000,,2013-07-20 14:53:00,
2013-07-20 11:01:00,82.0,72.0,-100.00,NNW,347,2.0,3.0,71,0.00,,,0.00,438.000000,,2013-07-20 15:01:00,
2013-07-20 11:33:00,82.0,74.0,-100.00,WNW,301,3.0,7.0,78,0.00,,,0.00,486.000000,,2013-07-20 15:33:00,
2013-07-20 11:44:00,82.0,74.0,-100.00,WNW,301,3.0,7.0,78,0.00,,,0.00,486.000000,,2013-07-20 15:44:00,
2013-07-20 11:53:00,82.0,74.0,-100.00,WNW,301,3.0,7.0,78,0.00,,,0.00,486.000000,,2013-07-20 15:53:00,
2013-07-20 12:01:00,82.0,74.0,-100.00,WNW,301,3.0,7.0,78,0.00,,,0.00,486.000000,,2013-07-20 16:01:00,
2013-07-20 12:02:00,81.0,75.0,-100.00,NW,318,2.0,4.0,83,0.00,,,0.00,264.000000,,2013-07-20 16:02:00,
2013-07-20 12:22:00,81.0,75.0,-100.00,NW,318,2.0,4.0,83,0.00,,,0.00,264.000000,,2013-07-20 16:22:00,
2013-07-20 12:32:00,81.0,75.0,-100.00,NW,318,2.0,4.0,83,0.00,,,0.00,264.000000,,2013-07-20 16:32:00,
2013-07-20 12:44:00,81.0,75.0,-100.00,NW,318,2.0,4.0,83,0.00,,,0.00,264.000000,,2013-07-20 16:44:00,
2013-07-20 12:52:00,81.0,75.0,-100.00,NW,318,2.0,4.0,83,0.00,,,0.00,264.000000,,2013-07-20 16:52:00,
2013-07-20 13:22:00,87.0,70.0,-100.00,West,264,3.0,8.0,58,0.00,,,0.00,738.000000,,2013-07-20 17:22:00,
2013-07-20 13:32:00,87.0,70.0,-100.00,West,264,3.0,8.0,58,0.00,,,0.00,738.000000,,2013-07-20 17:32:00,
2013-07-20 13:43:00,87.0,70.0,-100.00,West,264,3.0,8.0,58,0.00,,,0.00,738.000000,,2013-07-20 17:43:00,
2013-07-20 13:53:00,87.0,70.0,-100.00,West,264,3.0,8.0,58,0.00,,,0.00,738.000000,,2013-07-20 17:53:00,
2013-07-20 14:01:00,87.0,70.0,-100.00,West,264,3.0,8.0,58,0.00,,,0.00,738.000000,,2013-07-20 18:01:00,
2013-07-20 14:25:00,88.0,73.0,-100.00,NW,315,3.0,6.0,61,0.00,,,0.00,924.000000,,2013-07-20 18:25:00,
2013-07-20 14:38:00,88.0,73.0,-100.00,NW,315,3.0,6.0,61,0.00,,,0.00,924.000000,,2013-07-20 18:38:00,
2013-07-20 14:47:00,88.0,73.0,-100.00,NW,315,3.0,6.0,61,0.00,,,0.00,924.000000,,2013-07-20 18:47:00,
2013-07-20 14:59:00,88.0,73.0,-100.00,NW,315,3.0,6.0,61,0.00,,,0.00,924.000000,,2013-07-20 18:59:00,
2013-07-20 16:02:00,79.0,73.0,-100.00,South,170,2.0,6.0,82,-99.99,,,0.00,351.000000,,2013-07-20 20:02:00,
2013-07-20 16:24:00,79.0,73.0,-100.00,South,170,2.0,6.0,82,-99.99,,,0.00,351.000000,,2013-07-20 20:24:00,
2013-07-20 16:35:00,79.0,73.0,-100.00,South,170,2.0,6.0,82,-99.99,,,0.00,351.000000,,2013-07-20 20:35:00,
2013-07-20 16:47:00,79.0,73.0,-100.00,South,170,2.0,6.0,82,-99.99,,,0.00,351.000000,,2013-07-20 20:47:00,
2013-07-20 16:58:00,79.0,73.0,-100.00,South,170,2.0,6.0,82,-99.99,,,0.00,351.000000,,2013-07-20 20:58:00,
2013-07-20 17:28:00,82.0,73.0,-100.00,SE,136,2.0,5.0,75,0.00,,,0.00,386.000000,,2013-07-20 21:28:00,
2013-07-20 17:48:00,82.0,73.0,-100.00,SE,136,2.0,5.0,75,0.00,,,0.00,386.000000,,2013-07-20 21:48:00,
2013-07-20 17:57:00,82.0,73.0,-100.00,SE,136,2.0,5.0,75,0.00,,,0.00,386.000000,,2013-07-20 21:57:00,
2013-07-20 18:28:00,77.0,71.0,-100.00,NNE,19,2.0,5.0,81,0.00,,,0.00,145.000000,,2013-07-20 22:28:00,
2013-07-20 18:37:00,77.0,71.0,-100.00,NNE,19,2.0,5.0,81,0.00,,,0.00,145.000000,,2013-07-20 22:37:00,
2013-07-20 18:50:00,77.0,71.0,-100.00,NNE,19,2.0,5.0,81,0.00,,,0.00,145.000000,,2013-07-20 22:50:00,
2013-07-20 18:57:00,77.0,71.0,-100.00,NNE,19,2.0,5.0,81,0.00,,,0.00,145.000000,,2013-07-20 22:57:00,
2013-07-20 19:02:00,70.0,68.0,-100.00,SW,233,3.0,8.0,92,0.14,,,0.14,10.000000,,2013-07-20 23:02:00,
2013-07-20 19:29:00,70.0,68.0,-100.00,SW,233,3.0,8.0,92,0.14,,,0.14,10.000000,,2013-07-20 23:29:00,
2013-07-20 19:40:00,70.0,68.0,-100.00,SW,233,3.0,8.0,92,0.14,,,0.14,10.000000,,2013-07-20 23:40:00,
2013-07-20 19:46:00,70.0,68.0,-100.00,SW,233,3.0,8.0,92,0.14,,,0.14,10.000000,,2013-07-20 23:46:00,
2013-07-20 19:57:00,70.0,68.0,-100.00,SW,233,3.0,8.0,92,0.14,,,0.14,10.000000,,2013-07-20 23:57:00,
2013-07-20 20:02:00,68.0,67.0,-100.00,North,7,2.0,4.0,97,0.15,,,0.29,38.000000,,2013-07-21 00:02:00,
2013-07-20 20:24:00,68.0,67.0,-100.00,North,7,2.0,4.0,97,0.15,,,0.29,38.000000,,2013-07-21 00:24:00,
2013-07-20 20:45:00,68.0,67.0,-100.00,North,7,2.0,4.0,97,0.15,,,0.29,38.000000,,2013-07-21 00:45:00,
2013-07-20 20:56:00,68.0,67.0,-100.00,North,7,2.0,4.0,97,0.15,,,0.29,38.000000,,2013-07-21 00:56:00,
2013-07-20 21:02:00,68.0,67.0,-100.00,NW,312,1.0,2.0,98,0.00,,,0.29,12.000000,,2013-07-21 01:02:00,
2013-07-20 21:29:00,68.0,67.0,-100.00,NW,312,1.0,2.0,98,0.00,,,0.29,12.000000,,2013-07-21 01:29:00,
2013-07-20 21:37:00,68.0,67.0,-100.00,NW,312,1.0,2.0,98,0.00,,,0.29,12.000000,,2013-07-21 01:37:00,
2013-07-20 21:49:00,-999.0,-99.9,-100.00,NW,312,1.0,2.0,-999,-99.99,,,-99.99,12.000000,,2013-07-21 01:49:00,
2013-07-20 21:59:00,68.0,67.0,-100.00,NW,312,1.0,2.0,98,0.00,,,0.29,12.000000,,2013-07-21 01:59:00,
2013-07-20 22:02:00,68.0,67.0,-100.00,SSE,163,0.0,2.0,98,0.00,,,0.29,0.000000,,2013-07-21 02:02:00,
2013-07-20 22:38:00,68.0,67.0,-100.00,SSE,163,0.0,2.0,98,0.00,,,0.29,0.000000,,2013-07-21 02:38:00,
2013-07-20 22:47:00,68.0,67.0,-100.00,SSE,163,0.0,2.0,98,0.00,,,0.29,0.000000,,2013-07-21 02:47:00,
2013-07-20 22:58:00,68.0,67.0,-100.00,SSE,163,0.0,2.0,98,0.00,,,0.29,0.000000,,2013-07-21 02:58:00,
2013-07-20 23:26:00,69.0,68.0,-100.00,NE,47,1.0,2.0,98,0.00,,,0.29,0.000000,,2013-07-21 03:26:00,
2013-07-20 23:37:00,69.0,68.0,-100.00,NE,47,1.0,2.0,98,0.00,,,0.29,0.000000,,2013-07-21 03:37:00,
2013-07-20 23:47:00,69.0,68.0,-100.00,NE,47,1.0,2.0,98,0.00,,,0.29,0.000000,,2013-07-21 03:47:00,